Lid_Strength_Index
1 -1 -1 -2 -2 -2 -2 -1 -1 -0 -1 -1 -1 -2 -1 -1 -1 -1 -1 -1 -1 -1 -1 -1 -1 -1 -1 -1 -1 -1 -1 -1 -2 -1 -1 -1 -2 -2 -1 -1 -1 -1 -2
2 0 -1 -2 -2 -2 -2 -1 -0 -0 0 1 -0 -1 -2 -2 -1 -1 -1 -1 -1 -1 -1 -1 -1 -1 -1 -1 -1 -1 -1 -1 -2 -2 -2 -1 -1 -1 -1 -1 -1 -1 -1
2 3 2 -1 -2 -1 -2 -2 -1 -1 0 -0 1 1 0 -2 -2 -1 -1 -2 -2 -1 -2 -2 -1 -1 -1 -1 -1 -1 -1 -1 -1 -1 -1 -1 -1 -1 -1 -1 -1 -1 -1
3 4 2 -1 -1 -1 -1 -2 -1 -0 0 -0 -0 1 0 -1 -1 -0 -0 -0 -1 -2 -1 -1 -1 -1 -1 -1 -1 -1 -1 -1 -1 -1 -0 -0 -0 -1 -1 -1 -1 -1 -1
4 3 3 1 -1 -2 -1 -1 -1 -1 -1 0 0 1 1 -0 0 0 0 0 -0 -1 -2 -1 -1 -1 -1 -1 -1 -1 -1 -1 -0 -0 0 0 0 0 -1 -0 -0 -1 -1
5 4 3 -0 1 -1 -2 -1 -1 -1 -1 -1 0 0 0 0 1 2 1 0 -0 -1 -1 -1 -1 -1 -1 -1 -1 -1 -1 -0 0 1 1 0 1 -0 -0 0 0 -0 -1
5 4 4 1 -0 0 0 -2 -2 -1 -1 -1 -1 -1 -0 1 1 1 1 -0 -1 -1 -1 -1 -1 -1 -1 -1 -1 -1 -0 1 1 1 1 1 -0 -0 -1 0 0 0 0
6 5 4 3 2 0 1 1 -2 -2 -2 -2 -1 -1 -1 -1 1 1 1 -0 -1 -1 -1 -1 -1 -1 -1 -1 -1 -0 1 2 3 2 1 1 -1 0 0 0 0 1 1
6 5 5 4 3 2 1 1 1 -1 -1 -2 -1 -1 -0 0 1 1 1 0 -0 -1 -1 -1 -1 -1 -1 -1 -0 1 2 3 3 2 2 0 -1 0 0 0 1 2 2
7 6 5 5 4 3 2 0 0 -0 -1 -1 -1 -1 0 1 1 2 3 1 1 0 1 1 -0 0 -1 -0 1 2 3 3 2 3 2 -0 -0 0 0 1 2 1 2
7 7 6 5 5 4 2 1 1 1 -0 -0 -1 -0 -1 0 2 3 4 3 2 2 2 2 2 2 1 2 2 3 4 3 3 3 1 -0 0 1 1 1 2 2 2
9 7 7 6 5 4 3 2 1 -0 -1 -0 -0 -0 -0 0 2 3 5 5 5 4 3 3 2 3 5 5 5 4 4 4 4 3 1 0 0 1 1 2 2 2 2
9 8 7 7 6 5 4 2 1 0 -1 -0 -0 0 0 1 2 3 3 5 6 7 6 6 6 5 5 6 6 5 5 4 4 3 3 1 1 1 1 1 2 2 2
10 9 8 7 6 5 4 2 0 0 -1 0 -0 0 1 2 3 3 4 4 6 7 7 6 6 6 6 6 6 6 6 5 5 4 4 3 1 1 1 2 1 2 2
11 10 9 8 7 6 4 3 1 -0 -0 -0 0 1 1 2 3 3 4 4 4 5 7 7 6 7 7 7 7 7 7 7 7 6 4 4 2 1 1 1 1 1 1
12 11 10 8 7 6 5 3 2 -1 -1 -1 -0 1 1 3 3 4 4 4 4 4 4 6 7 7 7 7 8 9 9 9 8 7 7 6 4 2 1 1 1 0 1
12 11 10 8 7 7 5 3 1 -1 -1 1 -0 1 2 2 3 4 4 4 4 3 4 5 6 7 8 8 10 10 10 10 10 10 10 9 8 6 3 2 1 0 1
12 12 10 9 8 7 5 3 1 -1 -0 1 1 1 2 3 3 4 4 4 4 4 4 5 6 8 8 10 11 11 11 11 11 11 11 11 10 10 7 3 3 2 1
12 12 11 9 9 7 5 3 2 0 0 1 1 2 2 2 3 4 4 4 4 4 4 5 6 7 9 10 11 11 12 12 11 11 12 12 12 11 10 7 6 5 3
12 11 11 10 10 8 5 3 2 1 2 2 2 2 2 2 2 3 3 5 5 5 5 6 7 8 9 10 11 12 12 12 12 12 12 12 12 12 11 10 9 8 6
12 11 11 10 10 9 8 6 3 3 3 4 3 3 3 3 3 2 3 4 5 6 6 7 7 9 10 10 11 12 12 12 12 12 12 12 12 12 11 11 10 10 9
13 12 11 11 11 10 9 8 6 3 3 4 4 4 4 4 4 4 4 4 5 6 6 7 7 9 9 9 10 11 13 13 12 12 11 12 13 12 12 12 11 11 10
13 12 11 10 10 9 9 8 8 7 7 7 7 6 5 5 5 5 4 4 4 5 6 7 7 8 10 9 8 10 13 13 13 12 13 12 12 13 12 12 12 11 10
12 11 10 9 9 9 9 8 9 10 10 9 8 7 7 6 6 5 5 4 5 5 6 6 6 7 8 9 8 7 9 10 12 14 13 13 12 12 13 12 12 12 11
11 10 10 9 8 8 9 9 9 9 9 8 8 8 8 8 7 7 7 5 5 5 6 6 6 7 7 8 8 9 9 10 10 12 14 13 12 12 12 12 12 12 12
10 9 9 9 8 7 8 8 8 9 8 9 9 9 9 9 8 8 8 6 5 5 5 6 7 7 7 7 8 8 9 10 11 11 12 14 14 13 13 13 13 13 12